Voltar ao catálogo

STARLINK-34868

AtivoComunicaçõesVLEO
NORAD 65648·PAYLOAD·🇺🇸 United States

Lançado Sep 18, 2025 de Cape Canaveral Space Force Station

Loading…

Próximas Passagens (próximas 24 horas)

TLE

AtualizadoSource: CelesTrak SupGP

Época: Sep 14, 2026, 21:45 UTC

1 65648C 25210AC  26257.90673611 -.00073245  00000+0 -21637-2 0  2574
2 65648  53.1574 144.0043 0001304  92.8312 135.6361 15.34432067    16

Acompanhe STARLINK-34868 em tempo real com AllMySat

Download on the App Store